WetterOnline ( https://www.wetteronline.de )

Wetter aktuell Niederdorla

Aktuelles Wetter: Eisenach (312m)

6-stündlich | Neueste Meldungen
Ortszeit Temperatur Wetter
So, 16.06. 2:00 14.2° C wolkig
Sa, 15.06. 20:00 21.6° C fast wolkenlos
Sa, 15.06. 14:00 22.6° C leicht bewölkt
Sa, 15.06. 8:00 18.8° C wolkig
Sa, 15.06. 2:00 17.5° C wolkig
Fr, 14.06. 20:00 22.8° C bewölkt
Fr, 14.06. 14:00 25.0° C bedeckt
Fr, 14.06. 8:00 14.3° C wolkenlos
Ortszeit Temperatur Wetter
So, 16.06. 7:00 14.1° C bedeckt
So, 16.06. 6:40 13.7° C bedeckt
So, 16.06. 6:30 13.4° C bedeckt
So, 16.06. 6:20 13.4° C bedeckt
So, 16.06. 6:10 13.2° C bedeckt
So, 16.06. 6:00 12.4° C bedeckt
So, 16.06. 5:50 12.4° C bedeckt
So, 16.06. 5:30 12.3° C bedeckt
So, 16.06. 5:00 12.5° C bedeckt
So, 16.06. 4:30 11.6° C bedeckt
So, 16.06. 4:00 11.7° C bedeckt
Ortszeit Relative Feuchte Sichtweite
So, 16.06. 2:00 87% 35 km
Sa, 15.06. 20:00 53% >70 km
Sa, 15.06. 14:00 57% 50 km
Sa, 15.06. 8:00 76% 40 km
Sa, 15.06. 2:00 74% 50 km
Fr, 14.06. 20:00 52% 40 km
Fr, 14.06. 14:00 46% >70 km
Fr, 14.06. 8:00 84% 40 km
Ortszeit Relative Feuchte Sichtweite
So, 16.06. 7:00 90% 27 km
So, 16.06. 6:40 91% -
So, 16.06. 6:30 92% 15 km
So, 16.06. 6:20 92% -
So, 16.06. 6:10 92% -
So, 16.06. 6:00 95% 12 km
So, 16.06. 5:50 95% -
So, 16.06. 5:30 95% 4.2 km
So, 16.06. 5:00 94% 14 km
So, 16.06. 4:30 95% 6 km
So, 16.06. 4:00 96% 8 km
Ortszeit Niederschlagsmenge Niederschlagsart
So, 16.06. 2:00 0.0 l/m2 in 6 Std. -
Sa, 15.06. 20:00 0.0 l/m2 in 12 Std. -
Sa, 15.06. 14:00 0.0 l/m2 in 6 Std. -
Sa, 15.06. 8:00 0.1 l/m2 in 12 Std. Regen
Sa, 15.06. 2:00 0.1 l/m2 in 6 Std. Regen
Fr, 14.06. 20:00 0.1 l/m2 in 12 Std. Regen
Fr, 14.06. 14:00 0.0 l/m2 in 6 Std. -
Fr, 14.06. 8:00 0.0 l/m2 in 12 Std. -
Ortszeit Niederschlagsmenge Niederschlagsart
So, 16.06. 7:00 0.0 l/m2 in 1 Std. -
So, 16.06. 6:40 keine Meldung -
So, 16.06. 6:30 0.0 l/m2 in 1 Std. -
So, 16.06. 6:20 keine Meldung -
So, 16.06. 6:10 keine Meldung -
So, 16.06. 6:00 0.0 l/m2 in 1 Std. -
So, 16.06. 5:50 keine Meldung -
So, 16.06. 5:30 0.0 l/m2 in 1 Std. -
So, 16.06. 5:00 0.0 l/m2 in 1 Std. -
So, 16.06. 4:30 0.0 l/m2 in 1 Std. -
So, 16.06. 4:00 0.0 l/m2 in 1 Std. -
Ortszeit Stärke Spitze Richtung
km/h Bft. km/h Grad Sektor
So, 16.06. 2:00 7 2 22 280° W
Sa, 15.06. 20:00 14 3 43 290° W
Sa, 15.06. 14:00 25 4 50 250° W
Sa, 15.06. 8:00 4 1 22 140° SO
Sa, 15.06. 2:00 6 1 15 80° O
Fr, 14.06. 20:00 4 1 29 260° W
Fr, 14.06. 14:00 9 2 26 160° S
Fr, 14.06. 8:00 4 1 14 140° SO
Ortszeit Stärke Spitze Richtung
km/h Bft. km/h Grad Sektor
So, 16.06. 7:00 4 1 11 300° NW
So, 16.06. 6:40 4 1 - 270° W
So, 16.06. 6:30 6 1 7 260° W
So, 16.06. 6:20 6 1 - 260° W
So, 16.06. 6:10 6 1 - 290° W
So, 16.06. 6:00 0 0 7 - -
So, 16.06. 5:50 0 0 - 130° SO
So, 16.06. 5:30 4 1 7 100° O
So, 16.06. 5:00 6 1 7 270° W
So, 16.06. 4:30 4 1 7 140° SO
So, 16.06. 4:00 4 1 7 160° S
Ortszeit Untergrenze Bedeckung Gattung
total tief tief mittel hoch
So, 16.06. 2:00 8700 m 7/8 0/8 - - -
Sa, 15.06. 20:00 9000 m 1/8 0/8 - - -
Sa, 15.06. 14:00 1050 m 4/8 3/8 - - -
Sa, 15.06. 8:00 8400 m 7/8 0/8 - - -
Sa, 15.06. 2:00 3900 m 8/8 3/8 - - -
Fr, 14.06. 20:00 2700 m 7/8 7/8 - - -
Fr, 14.06. 14:00 3600 m 8/8 8/8 - - -
Fr, 14.06. 8:00 - 0/8 0/8 - - -
Ortszeit Bedeckungsgrad in Achtel und Wolkenuntergrenze
So, 16.06. 7:00 8(3000m)
So, 16.06. 6:40 8(3000m)
So, 16.06. 6:30 8(3000m)
So, 16.06. 6:20 8(3000m)
So, 16.06. 6:10 8(3000m)
So, 16.06. 6:00 8(3300m)
So, 16.06. 5:50 8(3300m)
So, 16.06. 5:30 8(3600m) 8(6300m)
So, 16.06. 5:00 6(3900m) 8(4500m)
So, 16.06. 4:30 5(4800m) 8(5700m)
So, 16.06. 4:00 8(6000m)
Ortszeit Luftdruck NN (hPa) Tendenz (hPa in 3 Std.)
So, 16.06. 2:00 1018 + 1,6
Sa, 15.06. 20:00 1014 0,0
Sa, 15.06. 14:00 1013 + 2,3
Sa, 15.06. 8:00 1008 - 0,3
Sa, 15.06. 2:00 1011 - 3,1
Fr, 14.06. 20:00 1015 - 0,4
Fr, 14.06. 14:00 1016 - 0,3
Fr, 14.06. 8:00 1017 0,0
Ortszeit Luftdruck NN (hPa) Tendenz (hPa in 3 Std.)
So, 16.06. 7:00 1019 + 0,4
So, 16.06. 6:40 1019 keine Meldung
So, 16.06. 6:30 1019 - 0,1
So, 16.06. 6:20 1019 keine Meldung
So, 16.06. 6:10 1019 keine Meldung
So, 16.06. 6:00 1019 + 0,2
So, 16.06. 5:50 1019 keine Meldung
So, 16.06. 5:30 1019 + 0,3
So, 16.06. 5:00 1019 + 0,3
So, 16.06. 4:30 1018 + 0,1
So, 16.06. 4:00 1019 + 0,5
Ortszeit Schneehöhe (cm)
So, 16.06. 2:00 -
Sa, 15.06. 20:00 -
Sa, 15.06. 14:00 -
Sa, 15.06. 8:00 -
Sa, 15.06. 2:00 -
Fr, 14.06. 20:00 -
Fr, 14.06. 14:00 -
Fr, 14.06. 8:00 -
Ortszeit Schneehöhe (cm)
So, 16.06. 7:00 -
So, 16.06. 6:40 -
So, 16.06. 6:30 -
So, 16.06. 6:20 -
So, 16.06. 6:10 -
So, 16.06. 6:00 -
So, 16.06. 5:50 -
So, 16.06. 5:30 -
So, 16.06. 5:00 -
So, 16.06. 4:30 -
So, 16.06. 4:00 -
Link zu dieser Seite / Seite empfehlen

Das Wetter in ...